Grinnell, IA

5:18 PM CDT on August 17, 2017 (GMT -0500)
Grinnell Regional

Weather History for KGGI - September, 2013

Change the Weather History Date:

Friday, September 27, 2013

  Actual Average (KTNU) Record (KTNU)
Temperature  
Mean Temperature 72 °F -  
Max Temperature 84 °F 73 °F 88 °F (1971)
Min Temperature 61 °F 49 °F 33 °F (1975)
Cooling Degree Days 7    
Growing Degree Days 22 (Base 50)    
Moisture  
Dew Point 59 °F    
Average Humidity 64    
Maximum Humidity 86    
Minimum Humidity 41    
Precipitation  
Precipitation 0.00 in - - ()
Sea Level Pressure  
Sea Level Pressure 29.98 in    
Wind  
Wind Speed 13 mph (SE)    
Max Wind Speed 21 mph    
Max Gust Speed 28 mph    
Visibility 10 miles    
Events      
Averages and records for this station are not official NWS values.
T = Trace of Precipitation, MM = Missing Value Source: NWS Daily Summary

Daily Weather History Graph

Daily Weather History Graph

Search for Another Location

Airport or City:

Trip Planner

Search our weather history database for the weather conditions in past years. The results will help you decide how hot, cold, wet, or windy it might be!

Date:

Astronomy

Sep. 27, 2013 Rise Set
Actual Time 7:03 AM CDT 6:59 PM CDT
Civil Twilight 6:36 AM CDT 7:26 PM CDT
Nautical Twilight 6:03 AM CDT 7:58 PM CDT
Astronomical Twilight 5:30 AM CDT 8:31 PM CDT
Moon No Moon Rise 2:42 PM CDT (9/27)
Length of Visible Light 12h 50m
Length of Day
11h 55m
Last Quarter, 45% of the Moon is Illuminated
Sep 27
Last Quarter
Oct 4
New
Oct 11
First Quarter
Oct 18
Full
Oct 26
Last Quarter

Hourly Weather History & Observations

Time (CDT) Temp. Heat Index Dew Point Humidity Pressure Visibility Wind Dir Wind Speed Gust Speed Precip Events Conditions
12:15 AM 68.7 °F - 58.8 °F 71% 29.98 in 10.0 mi SE 13.8 mph 19.6 mph N/A   Clear
12:35 AM 68.0 °F - 58.6 °F 72% 29.98 in 10.0 mi SE 12.7 mph - N/A   Clear
12:55 AM 67.5 °F - 58.5 °F 73% 29.99 in 10.0 mi SE 12.7 mph - N/A   Clear
1:15 AM 66.7 °F - 58.5 °F 75% 29.99 in 10.0 mi SE 11.5 mph - N/A   Clear
1:35 AM 66.4 °F - 58.5 °F 76% 29.99 in 10.0 mi SE 10.4 mph - N/A   Clear
1:55 AM 66.6 °F - 58.3 °F 75% 30.00 in 10.0 mi SSE 10.4 mph - N/A   Clear
2:15 AM 66.2 °F - 58.3 °F 76% 30.00 in 10.0 mi SSE 10.4 mph - N/A   Clear
2:35 AM 65.3 °F - 58.1 °F 77% 30.00 in 10.0 mi SSE 10.4 mph - N/A   Clear
2:55 AM 65.3 °F - 58.1 °F 77% 29.99 in 10.0 mi SE 9.2 mph - N/A   Clear
3:15 AM 64.9 °F - 57.9 °F 78% 30.00 in 10.0 mi SSE 10.4 mph - N/A   Clear
3:35 AM 64.9 °F - 57.7 °F 77% 30.00 in 10.0 mi SSE 9.2 mph - N/A   Clear
3:55 AM 64.6 °F - 57.6 °F 78% 30.00 in 10.0 mi SE 10.4 mph - N/A   Clear
4:15 AM 64.4 °F - 57.6 °F 78% 30.00 in 10.0 mi SE 8.1 mph - N/A   Clear
4:35 AM 63.9 °F - 57.4 °F 79% 30.00 in 10.0 mi SE 10.4 mph - N/A   Clear
4:55 AM 63.7 °F - 57.4 °F 80% 30.01 in 10.0 mi SE 9.2 mph - N/A   Clear
5:15 AM 63.1 °F - 57.2 °F 81% 30.01 in 10.0 mi SE 9.2 mph - N/A   Clear
5:35 AM 62.6 °F - 57.2 °F 82% 30.01 in 10.0 mi SE 8.1 mph - N/A   Clear
5:55 AM 62.1 °F - 57.2 °F 84% 30.01 in 10.0 mi SE 8.1 mph - N/A   Clear
6:15 AM 61.7 °F - 57.2 °F 85% 30.01 in 10.0 mi SE 6.9 mph - N/A   Clear
6:35 AM 61.7 °F - 57.2 °F 85% 30.01 in 10.0 mi SE 8.1 mph - N/A   Clear
6:55 AM 61.7 °F - 57.2 °F 85% 30.02 in 10.0 mi SE 8.1 mph - N/A   Clear
7:15 AM 61.7 °F - 57.4 °F 86% 30.02 in 10.0 mi SE 10.4 mph - N/A   Clear
7:35 AM 62.6 °F - 58.1 °F 85% 30.02 in 10.0 mi SE 11.5 mph - N/A   Clear
7:55 AM 63.7 °F - 58.3 °F 83% 30.03 in 10.0 mi SSE 11.5 mph - N/A   Clear
8:15 AM 65.1 °F - 59.0 °F 81% 30.03 in 10.0 mi SSE 12.7 mph 17.3 mph N/A   Clear
8:35 AM 67.1 °F - 59.5 °F 77% 30.03 in 10.0 mi SSE 15.0 mph 18.4 mph N/A   Clear
8:55 AM 67.8 °F - 59.9 °F 76% 30.03 in 10.0 mi SSE 15.0 mph 21.9 mph N/A   Clear
9:15 AM 69.1 °F - 60.1 °F 73% 30.03 in 10.0 mi SSE 11.5 mph 20.7 mph N/A   Clear
9:35 AM 70.5 °F - 60.8 °F 71% 30.03 in 10.0 mi SSE 12.7 mph - N/A   Clear
9:55 AM 72.0 °F - 61.0 °F 68% 30.03 in 10.0 mi SSE 13.8 mph - N/A   Clear
10:15 AM 73.4 °F - 61.5 °F 66% 30.03 in 10.0 mi SSE 12.7 mph - N/A   Clear
10:35 AM 75.6 °F - 61.9 °F 62% 30.03 in 10.0 mi SSE 16.1 mph 23.0 mph N/A   Clear
10:55 AM 78.1 °F - 62.2 °F 58% 30.03 in 10.0 mi South 16.1 mph 21.9 mph N/A   Scattered Clouds
11:15 AM 77.2 °F - 61.9 °F 59% 30.02 in 10.0 mi South 15.0 mph - N/A   Scattered Clouds
11:35 AM 79.3 °F - 62.2 °F 56% 30.02 in 10.0 mi SSE 16.1 mph 21.9 mph N/A   Scattered Clouds
11:55 AM 80.4 °F 81.5 °F 61.9 °F 53% 30.01 in 10.0 mi SSE 17.3 mph - N/A   Clear
12:15 PM 81.0 °F 81.8 °F 61.5 °F 51% 30.01 in 10.0 mi SSE 15.0 mph 23.0 mph N/A   Clear
12:35 PM 81.3 °F 82.1 °F 60.8 °F 50% 30.00 in 10.0 mi SSE 17.3 mph 25.3 mph N/A   Clear
12:55 PM 82.2 °F 82.7 °F 60.8 °F 48% 29.99 in 10.0 mi SSE 17.3 mph 21.9 mph N/A   Clear
1:15 PM 82.4 °F 82.5 °F 59.0 °F 45% 29.98 in 10.0 mi SSE 15.0 mph - N/A   Clear
1:35 PM 82.6 °F 82.6 °F 59.2 °F 45% 29.98 in 10.0 mi SE 15.0 mph 23.0 mph N/A   Clear
1:55 PM 83.3 °F 82.9 °F 57.9 °F 42% 29.97 in 10.0 mi SSE 17.3 mph 25.3 mph N/A   Clear
2:15 PM 83.5 °F 83.1 °F 58.1 °F 42% 29.95 in 10.0 mi SSE 18.4 mph 25.3 mph N/A   Clear
2:35 PM 83.8 °F 83.3 °F 57.7 °F 41% 29.95 in 10.0 mi SE 18.4 mph 26.5 mph N/A   Clear
2:55 PM 83.7 °F 83.3 °F 58.1 °F 42% 29.94 in 10.0 mi SSE 20.7 mph 27.6 mph N/A   Clear
3:15 PM 83.7 °F 83.3 °F 58.3 °F 42% 29.94 in 10.0 mi SE 16.1 mph 26.5 mph N/A   Clear
3:35 PM 83.3 °F 82.9 °F 58.3 °F 42% 29.93 in 10.0 mi SSE 17.3 mph 24.2 mph N/A   Clear
3:55 PM 83.3 °F 83.1 °F 58.8 °F 43% 29.93 in 10.0 mi SE 20.7 mph 26.5 mph N/A   Clear
4:15 PM 83.3 °F 83.1 °F 58.8 °F 43% 29.92 in 10.0 mi SSE 17.3 mph 25.3 mph N/A   Clear
4:35 PM 83.1 °F 82.9 °F 58.6 °F 43% 29.92 in 10.0 mi SSE 19.6 mph 24.2 mph N/A   Clear
4:55 PM 82.4 °F 82.3 °F 58.5 °F 44% 29.93 in 10.0 mi SE 18.4 mph 26.5 mph N/A   Clear
5:15 PM 82.0 °F 82.0 °F 58.3 °F 44% 29.93 in 10.0 mi SE 19.6 mph 24.2 mph N/A   Clear
5:35 PM 81.5 °F 81.5 °F 57.4 °F 44% 29.93 in 10.0 mi SE 16.1 mph 24.2 mph N/A   Clear
5:55 PM 80.6 °F 80.8 °F 57.6 °F 45% 29.93 in 10.0 mi SE 17.3 mph - N/A   Clear
6:15 PM 79.7 °F - 58.1 °F 47% 29.93 in 10.0 mi SE 13.8 mph 19.6 mph N/A   Clear
6:35 PM 78.4 °F - 58.1 °F 50% 29.93 in 10.0 mi SE 11.5 mph - N/A   Clear
6:55 PM 76.8 °F - 58.3 °F 53% 29.93 in 10.0 mi SE 10.4 mph - N/A   Clear
7:15 PM 74.8 °F - 58.3 °F 56% 29.93 in 10.0 mi SE 8.1 mph - N/A   Clear
7:35 PM 73.4 °F - 58.6 °F 60% 29.93 in 10.0 mi SE 9.2 mph - N/A   Clear
7:55 PM 72.7 °F - 59.0 °F 62% 29.93 in 10.0 mi SE 10.4 mph - N/A   Clear
8:15 PM 72.1 °F - 59.0 °F 63% 29.93 in 10.0 mi SE 9.2 mph - N/A   Clear
8:35 PM 70.7 °F - 59.0 °F 66% 29.94 in 10.0 mi SE 9.2 mph - N/A   Clear
8:55 PM 70.9 °F - 58.6 °F 65% 29.94 in 10.0 mi SE 12.7 mph - N/A   Clear
9:15 PM 71.4 °F - 58.5 °F 64% 29.94 in 10.0 mi SE 11.5 mph - N/A   Clear
9:35 PM 71.1 °F - 58.5 °F 64% 29.94 in 10.0 mi SE 13.8 mph - N/A   Clear
9:55 PM 71.2 °F - 58.5 °F 64% 29.94 in 10.0 mi SE 13.8 mph - N/A   Clear
10:15 PM 70.7 °F - 58.5 °F 65% 29.94 in 10.0 mi SE 13.8 mph 19.6 mph N/A   Clear
10:35 PM 70.2 °F - 58.5 °F 66% 29.94 in 10.0 mi SE 11.5 mph - N/A   Clear
10:55 PM 69.8 °F - 58.5 °F 67% 29.94 in 10.0 mi SE 10.4 mph 18.4 mph N/A   Scattered Clouds
11:15 PM 69.8 °F - 58.1 °F 66% 29.94 in 10.0 mi SE 15.0 mph 18.4 mph N/A   Mostly Cloudy
11:35 PM 69.6 °F - 58.1 °F 67% 29.93 in 10.0 mi SE 13.8 mph - N/A   Mostly Cloudy
11:55 PM 69.1 °F - 57.7 °F 67% 29.92 in 10.0 mi SE 15.0 mph 21.9 mph N/A   Scattered Clouds